This is the latest recevied weather packets stored in our database for station/object N6DZK. If no packets are shown the sender has not sent any weather packets the latest 10 day(s).
| Time | Temp. | Humidity | Pressure | Rain* | Wind** | Luminosity | Snow |
|---|---|---|---|---|---|---|---|
| 1777744915 | 16.11° C | 75% | 1015.1 hPa | 0 mm | - | 473 W/m² | - |
| 1777744615 | 16.11° C | 76% | 1015.1 hPa | 0 mm | - | 401 W/m² | - |
| 1777744311 | 15.56° C | 76% | 1015 hPa | 0 mm | - | 398 W/m² | - |
| 1777744008 | 15.56° C | 77% | 1014.9 hPa | 0 mm | - | 424 W/m² | - |
| 1777743704 | 15° C | 79% | 1014.7 hPa | 0 mm | - | 340 W/m² | - |
| 1777743402 | 15° C | 79% | 1014.7 hPa | 0 mm | - | 303 W/m² | - |
| 1777743099 | 15° C | 80% | 1014.8 hPa | 0 mm | - | 305 W/m² | - |
| 1777742796 | 15° C | 80% | 1014.8 hPa | 0 mm | - | 233 W/m² | - |
| 1777742493 | 15° C | 82% | 1014.6 hPa | 0 mm | - | 251 W/m² | - |
| 1777742188 | 14.44° C | 82% | 1014.5 hPa | 0 mm | - | 224 W/m² | - |
| 1777741886 | 14.44° C | 82% | 1014.7 hPa | 0 mm | - | 232 W/m² | - |
| 1777741583 | 13.89° C | 83% | 1014.7 hPa | 0 mm | - | 186 W/m² | - |
| 1777741280 | 13.89° C | 84% | 1014.5 hPa | 0 mm | - | 129 W/m² | - |
| 1777740976 | 13.89° C | 84% | 1014.6 hPa | 0 mm | - | 152 W/m² | - |
| 1777740673 | 13.89° C | 84% | 1014.7 hPa | 0 mm | - | 177 W/m² | - |
| 1777740369 | 13.89° C | 85% | 1014.5 hPa | 0 mm | - | 162 W/m² | - |
| 1777740066 | 13.89° C | 85% | 1014.6 hPa | 0 mm | - | 125 W/m² | - |
| 1777739763 | 13.89° C | 85% | 1014.6 hPa | 0 mm | - | 99 W/m² | - |
| 1777739459 | 13.89° C | 85% | 1014.6 hPa | 0 mm | - | 132 W/m² | - |
| 1777739156 | 13.89° C | 84% | 1014.4 hPa | 0 mm | - | 145 W/m² | - |
| 1777738854 | 13.89° C | 85% | 1014.4 hPa | 0 mm | - | 182 W/m² | - |
| 1777738550 | 13.89° C | 86% | 1014.4 hPa | 0 mm | - | 210 W/m² | - |
| 1777738247 | 13.89° C | 86% | 1014.5 hPa | 0 mm | - | 216 W/m² | - |
| 1777737945 | 13.33° C | 88% | 1014.4 hPa | 0 mm | - | 216 W/m² | - |
| 1777737643 | 13.33° C | 89% | 1014.7 hPa | 0 mm | - | 142 W/m² | - |
* Rain latest hour (hover to see other rain measurements)
** Current wind speed in m/s (hover to see current wind gust speed)